This is the latest recevied weather packets stored in our database for station/object K5NAN. If no packets are shown the sender has not sent any weather packets the latest 10 day(s).
| Time | Temp. | Humidity | Pressure | Rain* | Wind** | Luminosity | Snow |
|---|---|---|---|---|---|---|---|
| 1777910046 | 21.67° C | 53% | 1012 hPa | 0 mm | - | 583 W/m² | - |
| 1777909744 | 21.67° C | 54% | 1011.9 hPa | 0 mm | - | 585 W/m² | - |
| 1777909440 | 21.11° C | 54% | 1012 hPa | 0 mm | - | 585 W/m² | - |
| 1777909138 | 21.67° C | 55% | 1012.2 hPa | 0 mm | - | 431 W/m² | - |
| 1777908836 | 21.11° C | 57% | 1012.3 hPa | 0 mm | - | 620 W/m² | - |
| 1777908532 | 21.11° C | 59% | 1012.2 hPa | 0 mm | - | 541 W/m² | - |
| 1777908230 | 21.11° C | 59% | 1012.4 hPa | 0 mm | - | 561 W/m² | - |
| 1777907926 | 21.11° C | 59% | 1012.4 hPa | 0 mm | - | 507 W/m² | - |
| 1777907621 | 20.56° C | 61% | 1012.4 hPa | 0 mm | - | 506 W/m² | - |
| 1777907317 | 20.56° C | 61% | 1012.2 hPa | 0 mm | - | 523 W/m² | - |
| 1777907014 | 20° C | 63% | 1012.3 hPa | 0 mm | - | 492 W/m² | - |
| 1777906712 | 20° C | 65% | 1012.2 hPa | 0 mm | - | 459 W/m² | - |
| 1777906407 | 20° C | 66% | 1012.4 hPa | 0 mm | - | 442 W/m² | - |
| 1777906104 | 19.44° C | 66% | 1012.3 hPa | 0 mm | - | 364 W/m² | - |
| 1777905801 | 19.44° C | 67% | 1012.3 hPa | 0 mm | - | 303 W/m² | - |
| 1777905499 | 19.44° C | 67% | 1012.4 hPa | 0 mm | - | 285 W/m² | - |
| 1777905195 | 18.89° C | 69% | 1012.5 hPa | 0 mm | - | 436 W/m² | - |
| 1777904892 | 18.89° C | 69% | 1012.6 hPa | 0 mm | - | 423 W/m² | - |
| 1777904589 | 18.89° C | 70% | 1012.5 hPa | 0 mm | - | 390 W/m² | - |
| 1777904287 | 18.33° C | 72% | 1012.5 hPa | 0 mm | - | 369 W/m² | - |
| 1777903984 | 18.33° C | 71% | 1012.5 hPa | 0 mm | - | 311 W/m² | - |
| 1777903680 | 18.33° C | 73% | 1012.5 hPa | 0 mm | - | 328 W/m² | - |
| 1777903376 | 17.78° C | 74% | 1012.5 hPa | 0 mm | - | 327 W/m² | - |
| 1777903073 | 17.78° C | 75% | 1012.6 hPa | 0 mm | - | 318 W/m² | - |
| 1777902769 | 17.22° C | 75% | 1012.5 hPa | 0 mm | - | 301 W/m² | - |
* Rain latest hour (hover to see other rain measurements)
** Current wind speed in m/s (hover to see current wind gust speed)